Location: Cruquius
(52.3348°N, 4.6319°E)
Time: 19:38:22
(UTC+00:00)

Cosmos 2242 Rocket - Pass Details

Date: 02 October 2021
Orbit: 618 x 651 km, 82.5° (Epoch: 23 October)

Event Time Altitude Azimuth Distance (km) Brightness Sun altitude
Rises 04:40:04 0° 176° (S) 2,955 7.0 -10.6°
Reaches altitude 10° 04:42:20 10° 172° (S) 2,052 6.3 -10.3°
Maximum altitude 04:46:47 55° 95° (E) 790 4.5 -9.6°
Drops below altitude 10° 04:51:17 10° 18° (NNE) 2,071 6.6 -8.9°
Sets 04:53:34 0° 14° (NNE) 2,986 7.3 -8.6°
